JCSAT-12 (JCSAT-RA)

Last updated on Wed Oct 29 2025 00:02:47 GMT+0000 (Coordinated Universal Time)

1 35755U 09044A 25300.85606233 .00000000 00000+0 00000+0 0 9993 2 35755 0.0130 252.3645 0001920 356.0259 228.2994 1.00269809 59285
UTC large
Height (km)
Speed (km/s)
/
Latitude / Longitude
Inclination (degrees)
Orbital Period (minutes)
Azimuth
Elevation
Range (km)
Doppler Factor

Next 0 passes for location: London (51.5072 / 0.1276)

Sorry there are no passes over London.